When you browse on this site, cookies collect data to enhance your experience and personalize the content and advertising you see.
Visit our Privacy Policy to learn more. By continuing to use the site, you agree to this use of cookies and data.
  • In Hungary
  • List of Countries
  • For 7 days
  • Water Temperature
  • Satellite Maps
  • Weather Map
  • News
  • Weather Widgets
  • user-avatar
    Login

    Hourly Weather Calendario

    Today, 21 July, Sunday

    Time Temperature Precipitation Wind Pressure Humidity
    00:00 +18°C° 0 mm 1 mps 755 mmHg 86%
    01:00 +18°C° 0 mm 1 mps 754 mmHg 87%
    02:00 +16°C° 0 mm 1 mps 754 mmHg 87%
    03:00 +18°C° 0 mm 1 mps 754 mmHg 87%
    04:00 +18°C° 0 mm 1 mps 754 mmHg 86%
    05:00 +18°C° 0 mm 1 mps 754 mmHg 85%
    06:00 +21°C° 0 mm 1 mps 755 mmHg 75%
    07:00 +23°C° 0 mm 1 mps 755 mmHg 66%
    08:00 +26°C° 0 mm 2 mps 755 mmHg 57%
    09:00 +28°C° 0 mm 2 mps 755 mmHg 52%
    10:00 +30°C° 0 mm 3 mps 755 mmHg 46%
    11:00 +31°C° 0 mm 3 mps 754 mmHg 41%
    12:00 +32°C° 0 mm 4 mps 754 mmHg 41%
    13:00 +32°C° 0 mm 5 mps 754 mmHg 42%
    14:00 +32°C° 0 mm 6 mps 754 mmHg 42%
    15:00 +30°C° 0 mm 5 mps 754 mmHg 44%
    16:00 +30°C° 0 mm 5 mps 754 mmHg 45%
    17:00 +29°C° 0 mm 4 mps 754 mmHg 47%
    18:00 +27°C° 0 mm 3 mps 754 mmHg 55%
    19:00 +25°C° 0 mm 3 mps 754 mmHg 63%
    20:00 +23°C° 0 mm 2 mps 754 mmHg 71%
    21:00 +21°C° 0 mm 2 mps 754 mmHg 72%
    22:00 +22°C° 0 mm 1 mps 754 mmHg 73%
    23:00 +22°C° 0 mm 1 mps 754 mmHg 74%

    Tomorrow, 22 July, Monday

    Time Temperature Precipitation Wind Pressure Humidity
    00:00 +21°C° 0 mm 1 mps 754 mmHg 74%
    01:00 +21°C° 0 mm 1 mps 754 mmHg 75%
    02:00 +21°C° 0 mm 1 mps 753 mmHg 76%
    03:00 +19°C° 0 mm 0 mps 753 mmHg 75%
    04:00 +19°C° 0 mm 0 mps 753 mmHg 75%
    05:00 +19°C° 0 mm 0 mps 753 mmHg 75%
    06:00 +22°C° 0 mm 0 mps 753 mmHg 67%
    07:00 +24°C° 0 mm 0 mps 753 mmHg 58%
    08:00 +27°C° 0 mm 0 mps 753 mmHg 49%
    09:00 +30°C° 0 mm 1 mps 753 mmHg 46%
    10:00 +32°C° 0 mm 2 mps 753 mmHg 43%
    11:00 +34°C° 0 mm 3 mps 753 mmHg 40%
    12:00 +34°C° 0 mm 3 mps 752 mmHg 39%
    13:00 +34°C° 0 mm 3 mps 752 mmHg 39%
    14:00 +34°C° 0 mm 3 mps 752 mmHg 38%
    15:00 +33°C° 0 mm 3 mps 752 mmHg 42%
    16:00 +30°C° 0 mm 2 mps 751 mmHg 45%
    17:00 +29°C° 0 mm 2 mps 751 mmHg 49%
    18:00 +27°C° 0 mm 2 mps 751 mmHg 59%
    19:00 +24°C° 0 mm 2 mps 752 mmHg 68%
    20:00 +21°C° 0 mm 2 mps 752 mmHg 78%
    21:00 +21°C° 0 mm 1 mps 752 mmHg 79%
    22:00 +21°C° 0 mm 1 mps 752 mmHg 81%
    23:00 +21°C° 0 mm 1 mps 752 mmHg 82%

    Day after tomorrow, 23 July, Tuesday

    Time Temperature Precipitation Wind Pressure Humidity
    00:00 +20°C° 0 mm 1 mps 752 mmHg 84%
    01:00 +20°C° 0 mm 1 mps 751 mmHg 85%
    02:00 +20°C° 0 mm 1 mps 751 mmHg 87%
    03:00 +20°C° 0 mm 1 mps 751 mmHg 88%
    04:00 +20°C° 0 mm 1 mps 751 mmHg 89%
    05:00 +20°C° 0 mm 1 mps 751 mmHg 90%
    06:00 +21°C° 0 mm 1 mps 751 mmHg 82%
    07:00 +23°C° 0 mm 1 mps 751 mmHg 75%
    08:00 +25°C° 0 mm 1 mps 751 mmHg 67%
    09:00 +26°C° 0 mm 2 mps 751 mmHg 63%
    10:00 +27°C° 0 mm 3 mps 752 mmHg 58%
    11:00 +29°C° 0 mm 3 mps 752 mmHg 53%
    12:00 +28°C° 0 mm 4 mps 751 mmHg 53%
    13:00 +28°C° 0 mm 4 mps 751 mmHg 53%
    14:00 +28°C° 0 mm 4 mps 751 mmHg 54%
    15:00 +27°C° 0 mm 4 mps 751 mmHg 55%
    16:00 +26°C° 0 mm 4 mps 751 mmHg 57%
    17:00 +26°C° 0 mm 4 mps 751 mmHg 58%
    18:00 +24°C° 0 mm 3 mps 751 mmHg 66%
    19:00 +21°C° 0 mm 2 mps 752 mmHg 73%
    20:00 +19°C° 0 mm 2 mps 752 mmHg 81%
    21:00 +19°C° 0 mm 1 mps 752 mmHg 82%
    22:00 +19°C° 0 mm 1 mps 752 mmHg 83%
    23:00 +19°C° 0 mm 1 mps 751 mmHg 84%

    24 July, Wednesday

    Time Temperature Precipitation Wind Pressure Humidity
    00:00 +18°C° 0 mm 1 mps 751 mmHg 84%
    01:00 +18°C° 0 mm 1 mps 751 mmHg 85%
    02:00 +18°C° 0 mm 1 mps 750 mmHg 85%
    03:00 +18°C° 0 mm 1 mps 750 mmHg 84%
    04:00 +18°C° 0 mm 1 mps 750 mmHg 84%
    05:00 +18°C° 0 mm 1 mps 750 mmHg 83%
    06:00 +19°C° 0 mm 0 mps 750 mmHg 73%
    07:00 +22°C° 0 mm 0 mps 750 mmHg 62%
    08:00 +25°C° 0 mm 0 mps 750 mmHg 52%
    09:00 +28°C° 0 mm 1 mps 750 mmHg 47%
    10:00 +29°C° 0 mm 2 mps 749 mmHg 42%
    11:00 +30°C° 0 mm 2 mps 749 mmHg 38%
    12:00 +30°C° 0 mm 3 mps 749 mmHg 41%
    13:00 +29°C° 0 mm 3 mps 749 mmHg 44%
    14:00 +29°C° 0 mm 3 mps 748 mmHg 48%
    15:00 +28°C° 0 mm 3 mps 748 mmHg 54%
    16:00 +27°C° 0 mm 2 mps 748 mmHg 60%
    17:00 +26°C° 0 mm 2 mps 748 mmHg 66%
    18:00 +24°C° 0 mm 2 mps 749 mmHg 73%
    19:00 +23°C° 0 mm 1 mps 749 mmHg 80%
    20:00 +21°C° 0 mm 1 mps 749 mmHg 88%
    21:00 +21°C° 0 mm 1 mps 749 mmHg 88%
    22:00 +20°C° 0 mm 1 mps 749 mmHg 89%
    23:00 +20°C° 0 mm 1 mps 748 mmHg 90%

    25 July, Thursday

    Time Temperature Precipitation Wind Pressure Humidity
    00:00 +19°C° 0 mm 2 mps 748 mmHg 90%
    01:00 +19°C° 0 mm 2 mps 748 mmHg 90%
    02:00 +19°C° 0 mm 2 mps 748 mmHg 89%
    03:00 +20°C° 0 mm 3 mps 748 mmHg 89%
    04:00 +20°C° 0 mm 3 mps 748 mmHg 89%
    05:00 +20°C° 0 mm 3 mps 748 mmHg 89%
    06:00 +21°C° 0.2 mm 4 mps 749 mmHg 85%
    07:00 +21°C° 0.2 mm 4 mps 749 mmHg 82%
    08:00 +22°C° 0.2 mm 5 mps 749 mmHg 78%
    09:00 +21°C° 0.5 mm 4 mps 749 mmHg 81%
    10:00 +21°C° 0.5 mm 4 mps 750 mmHg 85%
    11:00 +20°C° 0.5 mm 4 mps 750 mmHg 88%
    12:00 +21°C° 0.1 mm 4 mps 750 mmHg 82%
    13:00 +21°C° 0.1 mm 3 mps 750 mmHg 76%
    14:00 +22°C° 0.1 mm 3 mps 751 mmHg 69%
    15:00 +22°C° 0 mm 3 mps 751 mmHg 69%
    16:00 +22°C° 0 mm 3 mps 751 mmHg 68%
    17:00 +22°C° 0 mm 3 mps 751 mmHg 68%
    18:00 +20°C° 0.1 mm 3 mps 752 mmHg 76%
    19:00 +19°C° 0.1 mm 2 mps 753 mmHg 84%
    20:00 +17°C° 0.1 mm 2 mps 753 mmHg 92%
    21:00 +17°C° 0 mm 2 mps 753 mmHg 92%
    22:00 +17°C° 0 mm 2 mps 753 mmHg 93%
    23:00 +16°C° 0 mm 2 mps 754 mmHg 93%

    26 July, Friday

    Time Temperature Precipitation Wind Pressure Humidity
    00:00 +16°C° 0 mm 2 mps 753 mmHg 93%
    01:00 +16°C° 0 mm 1 mps 753 mmHg 93%
    02:00 +16°C° 0 mm 1 mps 753 mmHg 93%
    03:00 +16°C° 0 mm 1 mps 753 mmHg 93%
    04:00 +16°C° 0 mm 1 mps 753 mmHg 92%
    05:00 +16°C° 0 mm 1 mps 754 mmHg 92%
    06:00 +18°C° 0 mm 1 mps 754 mmHg 83%
    07:00 +19°C° 0 mm 2 mps 754 mmHg 75%
    08:00 +21°C° 0 mm 2 mps 755 mmHg 66%
    09:00 +22°C° 0 mm 3 mps 755 mmHg 61%
    10:00 +24°C° 0 mm 3 mps 754 mmHg 56%
    11:00 +25°C° 0 mm 4 mps 754 mmHg 51%
    12:00 +25°C° 0 mm 5 mps 754 mmHg 50%
    13:00 +25°C° 0 mm 5 mps 754 mmHg 49%
    14:00 +25°C° 0 mm 5 mps 754 mmHg 48%
    15:00 +23°C° 0 mm 5 mps 754 mmHg 50%
    16:00 +22°C° 0 mm 5 mps 754 mmHg 53%
    17:00 +21°C° 0 mm 5 mps 754 mmHg 55%
    18:00 +20°C° 0 mm 4 mps 754 mmHg 63%
    19:00 +18°C° 0 mm 3 mps 754 mmHg 72%
    20:00 +16°C° 0 mm 2 mps 755 mmHg 80%
    21:00 +16°C° 0 mm 2 mps 755 mmHg 82%
    22:00 +15°C° 0 mm 2 mps 755 mmHg 83%
    23:00 +15°C° 0 mm 1 mps 755 mmHg 85%
    Show more